CW2840 Weather Reports


time (UTC)temp
F
wind
direction
speed
knots
gust
knots
rain 1hr
in
rain 24hr
in
rain mn
in
humidity
%
barometer
mb
20260903124422 79 152 0.0 1.7 0.00 1.26 0.04 91 1014.5
20260903122921 79 152 0.0 0.0 0.00 1.26 0.04 91 1014.2
20260903121421 79 152 0.0 1.7 0.00 1.26 0.04 91 1013.9
20260903115921 79 152 0.0 2.6 0.00 1.26 0.04 91 1013.8
20260903115112 79 152 1.7 1.7 0.00 1.26 0.04 91 1013.8
20260903112920 79 152 0.0 2.6 0.00 1.26 0.04 90 1013.8
20260903111419 79 152 0.9 1.7 0.00 1.26 0.04 90 1013.7
20260903105919 79 152 0.0 1.7 0.00 1.26 0.04 90 1013.7
20260903104419 79 152 0.0 2.6 0.00 1.26 0.04 90 1013.5
20260903102919 79 152 0.0 1.7 0.00 1.26 0.04 90 1013.5
20260903101419 79 152 1.7 4.3 0.00 1.26 0.04 90 1013.4
20260903100614 79 152 0.0 4.3 0.00 1.26 0.04 90 1013.5
20260903094418 79 152 0.0 2.6 0.00 1.26 0.04 90 1013.3
20260903092918 80 152 1.7 1.7 0.00 1.26 0.04 90 1013.3
20260903091417 79 152 0.0 1.7 0.00 1.26 0.04 90 1013.3
20260903085917 79 152 0.0 6.1 0.00 1.27 0.04 90 1013.4
20260903084417 80 152 1.7 6.1 0.00 1.27 0.04 90 1013.2
20260903082916 80 135 1.7 4.3 0.00 1.27 0.04 90 1013.2
20260903081416 80 141 3.5 9.6 0.00 1.27 0.04 90 1013.1
20260903081310 80 151 1.7 9.6 0.00 1.27 0.04 91 1013.1
20260903074415 79 157 2.6 7.8 0.00 1.27 0.04 91 1013.1
20260903072915 80 141 1.7 6.1 0.00 1.27 0.04 91 1012.9
20260903071414 79 141 1.7 4.3 0.00 1.27 0.04 91 1013.1
20260903065914 79 141 0.9 2.6 0.01 1.26 0.04 91 1013.2
20260903064414 79 141 0.0 1.7 0.02 1.26 0.04 91 1013.3
20260903062914 79 141 0.0 4.3 0.03 1.26 0.04 91 1013.4
20260903061413 79 157 2.6 6.1 0.04 1.26 0.04 91 1013.4
20260903060615 79 157 5.2 9.6 0.03 1.23 0.03 91 1013.7
20260903055110 79 128 0.9 2.6 0.02 1.23 0.02 91 1014.0
20260903052912 79 128 0.0 1.7 0.01 1.23 0.01 90 1014.3
20260903051412 78 128 0.0 2.6 0.00 1.23 0.00 90 1014.4
20260903045912 78 128 0.0 1.7 0.00 1.23 1.23 90 1014.7
20260903044412 78 128 0.9 1.7 0.00 1.23 1.23 90 1014.7
20260903042910 78 128 0.0 1.7 0.00 1.23 1.23 90 1014.8
20260903041408 78 128 0.0 2.6 0.00 1.23 1.23 90 1014.5
20260903035907 78 128 0.0 1.7 0.00 1.23 1.23 90 1014.5
20260903034404 78 128 0.0 2.6 0.00 1.23 1.23 90 1014.4
20260903032906 77 128 0.0 6.1 0.00 1.23 1.23 90 1014.4
20260903031402 77 127 0.0 2.6 0.00 1.23 1.23 89 1014.2
20260903030613 76 127 1.7 2.6 0.00 1.23 1.23 89 1014.0
20260903024402 76 127 0.0 1.7 0.00 1.23 1.23 89 1013.9
20260903022903 76 127 0.0 2.6 0.03 1.23 1.23 88 1013.6
20260903021403 76 127 1.7 4.3 0.03 1.23 1.23 88 1013.2
20260903020555 76 102 2.6 4.3 0.03 1.20 1.23 87 1013.1
20260903014402 77 83 2.6 4.3 0.03 1.20 1.23 87 1013.2
20260903012902 77 80 1.7 6.1 0.00 1.20 1.20 87 1013.5
20260903011403 76 240 4.3 7.8 0.00 1.20 1.20 87 1013.7
20260903005902 76 109 0.9 11.3 0.00 1.20 1.20 86 1013.2
20260903004402 77 59 4.3 9.6 0.54 1.20 1.20 85 1012.4
20260903002902 76 97 3.5 9.6 0.89 1.20 1.20 85 1012.6
20260903001402 76 89 6.1 11.3 0.89 1.20 1.20 86 1012.4
20260903000557 77 18 7.0 29.5 0.89 0.31 1.20 85 1012.1
20260902234402 79 0 6.1 21.7 0.42 0.31 0.57 84 1012.3
20260902232902 79 302 5.2 17.4 0.08 0.31 0.31 85 1011.7
20260902231402 80 350 4.3 12.2 0.22 0.32 0.31 85 1011.5
20260902225903 80 3 4.3 12.2 0.30 0.06 0.31 85 1011.1
20260902224402 80 326 2.6 6.1 0.22 0.09 0.23 83 1011.3
20260902222902 81 350 3.5 7.8 0.22 0.14 0.23 79 1011.3
20260902221403 91 8 5.2 13.9 0.08 0.17 0.05 61 1011.9
20260902215902 93 148 3.5 12.2 0.00 0.26 0.01 52 1011.2
20260902214403 93 185 4.3 15.6 0.00 0.33 0.01 52 1011.3
20260902212902 93 190 4.3 15.6 0.00 0.33 0.01 52 1011.2
20260902212759 94 135 5.2 13.9 0.00 0.33 0.01 53 1011.4
20260902211634 94 166 4.3 11.3 0.00 0.33 0.01 53 1011.7
20260902211233 95 159 5.2 17.4 0.00 0.33 0.01 51 1011.7
20260902202901 95 155 8.7 15.6 0.00 0.33 0.01 52 1011.9
20260902201400 94 127 6.1 15.6 0.00 0.33 0.01 53 1012.2
20260902195900 94 176 3.5 20.9 0.00 0.33 0.01 53 1012.0
20260902194401 94 147 7.0 15.6 0.00 0.33 0.01 54 1012.4
20260902193555 93 197 3.5 13.9 0.00 0.33 0.01 54 1012.7
20260902191400 93 223 7.8 19.1 0.00 0.33 0.01 56 1012.8
20260902185900 93 195 2.6 13.9 0.00 0.33 0.01 58 1012.9
20260902184358 92 212 3.5 17.4 0.00 0.33 0.01 58 1013.2
20260902182858 92 252 4.3 17.4 0.00 0.33 0.01 63 1013.5
20260902181357 91 144 4.3 9.6 0.00 0.33 0.01 64 1013.8
20260902175855 90 162 3.5 11.3 0.00 0.33 0.01 67 1014.2
20260902174353 89 258 1.7 11.3 0.00 0.33 0.01 69 1014.5
20260902173545 89 276 5.2 11.3 0.00 0.33 0.01 70 1014.8
20260902171349 87 195 4.3 12.2 0.00 0.33 0.01 71 1015.0
20260902165847 87 261 4.3 19.1 0.00 0.33 0.01 72 1015.3
20260902164345 86 290 2.6 9.6 0.00 0.33 0.01 74 1015.4
20260902162844 85 258 3.5 13.9 0.00 0.33 0.01 75 1015.4
20260902161341 85 264 2.6 12.2 0.00 0.33 0.01 76 1015.5
20260902155840 85 168 3.5 12.2 0.00 0.33 0.01 78 1015.3
20260902154337 84 259 5.2 20.9 0.00 0.33 0.01 79 1015.3
20260902152835 83 235 3.5 11.3 0.00 0.33 0.01 80 1015.3
20260902152044 83 275 5.2 13.9 0.00 0.33 0.01 82 1015.1
20260902150534 82 262 2.6 11.3 0.00 0.33 0.01 83 1015.3
20260902144331 81 258 1.7 12.2 0.00 0.33 0.01 83 1015.2
20260902143528 81 265 4.3 12.2 0.00 0.33 0.01 84 1015.3
20260902141331 81 275 1.7 13.9 0.00 0.33 0.01 84 1015.1
20260902135831 81 296 2.6 12.2 0.00 0.33 0.01 85 1014.9
20260902134331 81 251 2.6 9.6 0.00 0.33 0.01 85 1015.1
20260902132831 80 272 2.6 9.6 0.00 0.33 0.01 85 1014.9
20260902131330 80 251 3.5 11.3 0.00 0.33 0.01 85 1014.8
20260902125832 80 268 1.7 11.3 0.00 0.33 0.01 85 1014.6